Estación de Santa Rosa INIA
Ultimos registro cada 15 minutos 89
| N° | Estación | Fecha / Hora | Temperatura | Humedad | Lluvia | Velocidad | Dirección | Radiación | Presion |
| 89 | Santa Rosa INIA | 30-08-2026 22:00 | 11,2 | 75,7 | 0 | 0 | 0 | 0,7 | 998 |
| 88 | Santa Rosa INIA | 30-08-2026 21:45 | 11,4 | 71,6 | 0 | 0 | 0 | 0,7 | 998 |
| 87 | Santa Rosa INIA | 30-08-2026 21:30 | 11,6 | 72,3 | 0 | 0 | 0 | 0,7 | 998 |
| 86 | Santa Rosa INIA | 30-08-2026 21:15 | 11,6 | 69,1 | 0 | 0,4 | 295 | 0,7 | 998 |
| 85 | Santa Rosa INIA | 30-08-2026 21:00 | 11,6 | 70,5 | 0 | 0 | 0 | 0,7 | 997 |
| 84 | Santa Rosa INIA | 30-08-2026 20:45 | 11,8 | 71,8 | 0 | 0 | 0 | 0,7 | 997 |
| 83 | Santa Rosa INIA | 30-08-2026 20:30 | 12,1 | 68,9 | 0 | 0,1 | 323 | 0,7 | 997 |
| 82 | Santa Rosa INIA | 30-08-2026 20:15 | 12,3 | 74,5 | 0 | 0 | 0 | 0,7 | 997 |
| 81 | Santa Rosa INIA | 30-08-2026 20:00 | 12,5 | 73,5 | 0 | 0 | 0 | 0,8 | 997 |
| 80 | Santa Rosa INIA | 30-08-2026 19:45 | 12,8 | 72,4 | 0 | 0 | 0 | 0,7 | 996 |
| 79 | Santa Rosa INIA | 30-08-2026 19:30 | 12,6 | 68,6 | 0 | 0 | 0 | 0,7 | 996 |
| 78 | Santa Rosa INIA | 30-08-2026 19:15 | 12,9 | 76,8 | 0 | 0 | 0 | 0,7 | 996 |
| 77 | Santa Rosa INIA | 30-08-2026 19:00 | 13,2 | 74 | 0 | 0 | 0 | 0,7 | 996 |
| 76 | Santa Rosa INIA | 30-08-2026 18:45 | 13,5 | 73 | 0 | 0 | 0 | 1 | 996 |
| 75 | Santa Rosa INIA | 30-08-2026 18:30 | 13,8 | 71,1 | 0 | 0,9 | 37 | 3,6 | 995 |
| 74 | Santa Rosa INIA | 30-08-2026 18:15 | 14 | 69,2 | 0 | 1,5 | 39 | 10,6 | 995 |
| 73 | Santa Rosa INIA | 30-08-2026 18:00 | 14,3 | 67,3 | 0 | 1,4 | 43 | 21,8 | 995 |
| 72 | Santa Rosa INIA | 30-08-2026 17:45 | 14,5 | 65,9 | 0 | 0,7 | 37 | 37,9 | 995 |
| 71 | Santa Rosa INIA | 30-08-2026 17:30 | 14,7 | 66 | 0 | 1,5 | 40 | 57,1 | 995 |
| 70 | Santa Rosa INIA | 30-08-2026 17:15 | 14,8 | 66,7 | 0 | 2 | 39 | 80,6 | 995 |
| 69 | Santa Rosa INIA | 30-08-2026 17:00 | 15 | 64 | 0 | 2,1 | 37 | 101,3 | 995 |
| 68 | Santa Rosa INIA | 30-08-2026 16:45 | 15,1 | 60,8 | 0 | 2,2 | 38 | 130,2 | 994 |
| 67 | Santa Rosa INIA | 30-08-2026 16:30 | 15,3 | 60,7 | 0 | 1,9 | 40 | 145,8 | 995 |
| 66 | Santa Rosa INIA | 30-08-2026 16:15 | 15,3 | 59,7 | 0 | 1,4 | 24 | 167,9 | 994 |
| 65 | Santa Rosa INIA | 30-08-2026 16:00 | 15,2 | 59,8 | 0 | 0,9 | 28 | 162 | 994 |
| 64 | Santa Rosa INIA | 30-08-2026 15:45 | 15,3 | 57,1 | 0 | 2,2 | 24 | 178,8 | 994 |
| 63 | Santa Rosa INIA | 30-08-2026 15:30 | 15,4 | 54,2 | 0 | 1,7 | 10 | 226,5 | 994 |
| 62 | Santa Rosa INIA | 30-08-2026 15:15 | 15,4 | 52,8 | 0 | 2,3 | 2 | 284,7 | 994 |
| 61 | Santa Rosa INIA | 30-08-2026 15:00 | 15,5 | 54,4 | 0 | 2,7 | 13 | 362,5 | 994 |
| 60 | Santa Rosa INIA | 30-08-2026 14:45 | 15,8 | 54,7 | 0 | 2,5 | 12 | 341,3 | 994 |
| 59 | Santa Rosa INIA | 30-08-2026 14:30 | 15,8 | 58,3 | 0 | 1,5 | 357 | 436,8 | 994 |
| 58 | Santa Rosa INIA | 30-08-2026 14:15 | 15,5 | 58,7 | 0 | 2,3 | 9 | 432,9 | 994 |
| 57 | Santa Rosa INIA | 30-08-2026 14:00 | 15,4 | 60,3 | 0 | 1,6 | 344 | 589,8 | 994 |
| 56 | Santa Rosa INIA | 30-08-2026 13:45 | 14,6 | 63 | 0 | 2 | 358 | 369,5 | 994 |
| 55 | Santa Rosa INIA | 30-08-2026 13:30 | 14,6 | 65,8 | 0 | 0,5 | 341 | 412,5 | 994 |
| 54 | Santa Rosa INIA | 30-08-2026 13:15 | 14,4 | 72,2 | 0 | 0,9 | 349 | 336,3 | 994 |
| 53 | Santa Rosa INIA | 30-08-2026 13:00 | 14,4 | 70,1 | 0 | 1,9 | 312 | 591,6 | 995 |
| 52 | Santa Rosa INIA | 30-08-2026 12:45 | 14,2 | 80,5 | 0 | 2,1 | 315 | 627,2 | 995 |
| 51 | Santa Rosa INIA | 30-08-2026 12:30 | 13,9 | 76,9 | 0 | 2,1 | 320 | 502,7 | 995 |
| 50 | Santa Rosa INIA | 30-08-2026 12:15 | 14,1 | 69,2 | 0 | 1,6 | 331 | 307,3 | 994 |
| 49 | Santa Rosa INIA | 30-08-2026 12:00 | 14,2 | 68,9 | 0 | 1,6 | 346 | 466,4 | 994 |
| 48 | Santa Rosa INIA | 30-08-2026 11:45 | 14,2 | 67,7 | 0 | 1,7 | 344 | 466,8 | 994 |
| 47 | Santa Rosa INIA | 30-08-2026 11:30 | 14 | 66,9 | 0 | 0,5 | 354 | 550,4 | 994 |
| 46 | Santa Rosa INIA | 30-08-2026 11:15 | 13,7 | 66,5 | 0 | 1,3 | 9 | 523 | 994 |
| 45 | Santa Rosa INIA | 30-08-2026 11:00 | 13,1 | 71,9 | 0 | 0,9 | 353 | 532 | 994 |
| 44 | Santa Rosa INIA | 30-08-2026 10:45 | 12,4 | 73,3 | 0 | 0,4 | 351 | 465,4 | 994 |
| 43 | Santa Rosa INIA | 30-08-2026 10:30 | 11,6 | 77,4 | 0 | 0,7 | 356 | 380 | 994 |
| 42 | Santa Rosa INIA | 30-08-2026 10:15 | 11,1 | 76,7 | 0 | 0,3 | 16 | 474,3 | 994 |
| 41 | Santa Rosa INIA | 30-08-2026 10:00 | 10 | 80,3 | 0 | 0 | 37 | 366,7 | 994 |
| 40 | Santa Rosa INIA | 30-08-2026 09:45 | 9,1 | 81,9 | 0 | 0 | 0 | 291,3 | 994 |
| 39 | Santa Rosa INIA | 30-08-2026 09:30 | 8,4 | 89,6 | 0 | 0 | 0 | 224,2 | 994 |
| 38 | Santa Rosa INIA | 30-08-2026 09:15 | 8 | 90,5 | 0 | 0 | 0 | 249,4 | 994 |
| 37 | Santa Rosa INIA | 30-08-2026 09:00 | 8 | 91,1 | 0 | 0 | 85 | 244,8 | 994 |
| 36 | Santa Rosa INIA | 30-08-2026 08:45 | 7,5 | 93,2 | 0 | 0 | 109 | 234,5 | 994 |
| 35 | Santa Rosa INIA | 30-08-2026 08:30 | 6,7 | 94,1 | 0 | 0 | 0 | 190,6 | 994 |
| 34 | Santa Rosa INIA | 30-08-2026 08:15 | 5,7 | 95,7 | 0 | 0 | 0 | 128,6 | 994 |
| 33 | Santa Rosa INIA | 30-08-2026 08:00 | 4,5 | 95,7 | 0 | 0 | 0 | 99,8 | 994 |
| 32 | Santa Rosa INIA | 30-08-2026 07:45 | 3,8 | 94,8 | 0 | 0 | 0 | 70 | 993 |
| 31 | Santa Rosa INIA | 30-08-2026 07:30 | 3,4 | 95,7 | 0 | 0 | 0 | 27,1 | 993 |
| 30 | Santa Rosa INIA | 30-08-2026 07:15 | 3,1 | 96,4 | 0 | 0 | 0 | 4,5 | 993 |
| 29 | Santa Rosa INIA | 30-08-2026 07:00 | 3,6 | 95,4 | 0 | 0 | 0 | 0,8 | 993 |
| 28 | Santa Rosa INIA | 30-08-2026 06:45 | 3,2 | 96,2 | 0 | 0 | 0 | 0 | 992 |
| 27 | Santa Rosa INIA | 30-08-2026 06:30 | 3,3 | 94,9 | 0 | 0 | 0 | 0 | 992 |
| 26 | Santa Rosa INIA | 30-08-2026 06:15 | 3,4 | 94,8 | 0 | 0 | 0 | 0,2 | 992 |
| 25 | Santa Rosa INIA | 30-08-2026 06:00 | 3 | 94,7 | 0 | 0 | 0 | 0,5 | 992 |
| 24 | Santa Rosa INIA | 30-08-2026 05:45 | 3,2 | 94,2 | 0 | 0 | 0 | 0 | 992 |
| 23 | Santa Rosa INIA | 30-08-2026 05:30 | 3,2 | 94,5 | 0 | 0 | 0 | 0 | 992 |
| 22 | Santa Rosa INIA | 30-08-2026 05:15 | 3,6 | 94,3 | 0 | 0 | 0 | 0,2 | 992 |
| 21 | Santa Rosa INIA | 30-08-2026 05:00 | 3,7 | 94,3 | 0 | 0 | 0 | 0,5 | 993 |
| 20 | Santa Rosa INIA | 30-08-2026 04:45 | 3,7 | 94,8 | 0 | 0 | 0 | 0 | 993 |
| 19 | Santa Rosa INIA | 30-08-2026 04:30 | 4,1 | 93,6 | 0 | 0 | 0 | 0 | 992 |
| 18 | Santa Rosa INIA | 30-08-2026 04:15 | 4,4 | 93,7 | 0 | 0 | 0 | 0,2 | 992 |
| 17 | Santa Rosa INIA | 30-08-2026 04:00 | 4,6 | 94,3 | 0 | 0 | 0 | 0,5 | 992 |
| 16 | Santa Rosa INIA | 30-08-2026 03:45 | 5,1 | 93,1 | 0 | 0 | 0 | 0 | 993 |
| 15 | Santa Rosa INIA | 30-08-2026 03:30 | 5,3 | 93,8 | 0 | 0 | 0 | 0 | 993 |
| 14 | Santa Rosa INIA | 30-08-2026 03:15 | 5,4 | 94,6 | 0 | 0 | 0 | 0,3 | 993 |
| 13 | Santa Rosa INIA | 30-08-2026 03:00 | 5,4 | 94 | 0 | 0 | 0 | 0,7 | 993 |
| 12 | Santa Rosa INIA | 30-08-2026 02:45 | 5,6 | 94,2 | 0 | 0 | 0 | 0 | 993 |
| 11 | Santa Rosa INIA | 30-08-2026 02:30 | 6,1 | 93,5 | 0 | 0 | 0 | 0 | 994 |
| 10 | Santa Rosa INIA | 30-08-2026 02:15 | 5,9 | 93,7 | 0 | 0 | 0 | 0,3 | 994 |
| 9 | Santa Rosa INIA | 30-08-2026 02:00 | 6,1 | 93,3 | 0 | 0 | 0 | 0,9 | 994 |
| 8 | Santa Rosa INIA | 30-08-2026 01:45 | 6,1 | 94,2 | 0 | 0 | 0 | 0,7 | 994 |
| 7 | Santa Rosa INIA | 30-08-2026 01:30 | 6,4 | 92,8 | 0 | 0 | 0 | 0,7 | 994 |
| 6 | Santa Rosa INIA | 30-08-2026 01:15 | 6,6 | 93,1 | 0 | 0 | 0 | 0,7 | 995 |
| 5 | Santa Rosa INIA | 30-08-2026 01:00 | 6,7 | 93 | 0 | 0 | 0 | 0,7 | 995 |
| 4 | Santa Rosa INIA | 30-08-2026 00:45 | 7 | 91,4 | 0 | 0 | 0 | 0,7 | 995 |
| 3 | Santa Rosa INIA | 30-08-2026 00:30 | 7,3 | 91,6 | 0 | 0 | 0 | 0,7 | 995 |
| 2 | Santa Rosa INIA | 30-08-2026 00:15 | 7,6 | 91,9 | 0 | 0 | 0 | 0,7 | 995 |
| 1 | Santa Rosa INIA | 30-08-2026 00:00 | 8 | 91,2 | 0 | 0 | 0 | 0,7 | 995 |